Time,TemperatureF,DewpointF,PressureIn,WindDirection,WindDirectionDegrees,WindSpeedMPH,WindSpeedGustMPH,Humidity,HourlyPrecipIn,Conditions,Clouds,dailyrainin,SoftwareType,DateUTC
2013-12-02 00:00:00,40.6,39.0,29.90,North,360,1.0,1.0,94,0.00,,,0.00,Wunderground v.1.15,2013-12-02 05:00:00,
2013-12-02 00:05:00,40.6,39.3,29.90,North,360,1.0,1.0,95,0.00,,,0.00,Wunderground v.1.15,2013-12-02 05:05:00,
2013-12-02 00:10:00,40.6,39.3,29.90,North,360,1.0,1.0,95,0.00,,,0.00,Wunderground v.1.15,2013-12-02 05:10:00,
2013-12-02 00:15:00,40.6,39.3,29.89,North,360,1.0,1.0,95,0.00,,,0.00,Wunderground v.1.15,2013-12-02 05:15:00,
2013-12-02 00:20:00,40.7,39.4,29.89,North,360,1.0,1.0,95,0.00,,,0.00,Wunderground v.1.15,2013-12-02 05:20:00,
2013-12-02 00:25:00,40.7,39.4,29.89,North,360,1.0,1.0,95,0.00,,,0.00,Wunderground v.1.15,2013-12-02 05:25:00,
2013-12-02 00:30:00,40.7,39.4,29.89,North,360,1.0,2.0,95,0.00,,,0.00,Wunderground v.1.15,2013-12-02 05:30:00,
2013-12-02 00:40:00,40.6,39.3,29.89,North,360,1.0,1.0,95,0.00,,,0.00,Wunderground v.1.15,2013-12-02 05:40:00,
2013-12-02 00:50:00,40.6,39.3,29.89,North,7,1.0,1.0,95,0.00,,,0.00,Wunderground v.1.15,2013-12-02 05:50:00,
2013-12-02 01:00:00,40.7,39.4,29.89,North,2,2.0,2.0,95,0.00,,,0.00,Wunderground v.1.15,2013-12-02 06:00:00,
2013-12-02 01:10:00,40.8,39.5,29.89,NNW,347,2.0,2.0,95,0.00,,,0.00,Wunderground v.1.15,2013-12-02 06:10:00,
2013-12-02 01:20:00,40.7,39.4,29.89,North,11,2.0,2.0,95,0.00,,,0.00,Wunderground v.1.15,2013-12-02 06:20:00,
2013-12-02 01:30:00,40.9,39.6,29.89,North,360,3.0,3.0,95,0.00,,,0.00,Wunderground v.1.15,2013-12-02 06:30:00,
2013-12-02 01:40:00,40.7,39.4,29.89,North,2,4.0,5.0,95,0.00,,,0.00,Wunderground v.1.15,2013-12-02 06:40:00,
2013-12-02 01:50:00,40.4,38.8,29.89,North,2,4.0,4.0,94,0.00,,,0.00,Wunderground v.1.15,2013-12-02 06:50:00,
2013-12-02 02:00:00,40.2,38.6,29.89,NNW,347,3.0,3.0,94,0.00,,,0.00,Wunderground v.1.15,2013-12-02 07:00:00,
2013-12-02 02:10:00,40.2,38.6,29.89,NNW,342,2.0,5.0,94,0.00,,,0.00,Wunderground v.1.15,2013-12-02 07:10:00,
2013-12-02 02:20:00,40.1,38.5,29.89,NNE,31,3.0,3.0,94,0.00,,,0.00,Wunderground v.1.15,2013-12-02 07:20:00,
2013-12-02 02:30:00,40.2,38.6,29.88,North,8,3.0,3.0,94,0.00,,,0.00,Wunderground v.1.15,2013-12-02 07:30:00,
2013-12-02 02:40:00,40.3,38.7,29.88,North,351,2.0,2.0,94,0.00,,,0.00,Wunderground v.1.15,2013-12-02 07:40:00,
2013-12-02 02:50:00,40.3,38.7,29.89,NNE,28,2.0,3.0,94,0.00,,,0.00,Wunderground v.1.15,2013-12-02 07:50:00,
2013-12-02 03:00:00,40.2,38.3,29.88,North,351,2.0,2.0,93,0.00,,,0.00,Wunderground v.1.15,2013-12-02 08:00:00,
2013-12-02 03:10:00,40.2,38.3,29.88,NNW,347,3.0,4.0,93,0.00,,,0.00,Wunderground v.1.15,2013-12-02 08:10:00,
2013-12-02 03:20:00,40.1,38.2,29.87,NNW,331,4.0,4.0,93,0.00,,,0.00,Wunderground v.1.15,2013-12-02 08:20:00,
2013-12-02 03:30:00,40.0,38.1,29.87,NNE,12,4.0,4.0,93,0.00,,,0.00,Wunderground v.1.15,2013-12-02 08:30:00,
2013-12-02 03:40:00,40.0,38.1,29.87,NNE,25,3.0,3.0,93,0.00,,,0.00,Wunderground v.1.15,2013-12-02 08:40:00,
2013-12-02 03:50:00,40.0,38.1,29.87,North,9,3.0,4.0,93,0.00,,,0.00,Wunderground v.1.15,2013-12-02 08:50:00,
2013-12-02 04:00:00,40.1,38.2,29.87,North,356,3.0,3.0,93,0.00,,,0.00,Wunderground v.1.15,2013-12-02 09:00:00,
2013-12-02 04:10:00,40.1,38.2,29.87,NE,36,2.0,2.0,93,0.00,,,0.00,Wunderground v.1.15,2013-12-02 09:10:00,
2013-12-02 04:20:00,40.1,38.2,29.86,NNW,342,2.0,2.0,93,0.00,,,0.00,Wunderground v.1.15,2013-12-02 09:20:00,
2013-12-02 04:30:00,40.0,38.1,29.86,NE,35,2.0,2.0,93,0.00,,,0.00,Wunderground v.1.15,2013-12-02 09:30:00,
2013-12-02 04:40:00,40.0,38.1,29.86,ENE,75,1.0,1.0,93,0.00,,,0.00,Wunderground v.1.15,2013-12-02 09:40:00,
2013-12-02 04:50:00,40.0,38.1,29.86,North,358,1.0,1.0,93,0.00,,,0.00,Wunderground v.1.15,2013-12-02 09:50:00,
2013-12-02 05:00:00,40.1,38.2,29.87,ENE,73,2.0,2.0,93,0.00,,,0.00,Wunderground v.1.15,2013-12-02 10:00:00,
2013-12-02 05:10:00,40.3,38.7,29.87,NNE,27,2.0,5.0,94,0.00,,,0.00,Wunderground v.1.15,2013-12-02 10:10:00,
2013-12-02 05:20:00,40.5,38.9,29.87,ESE,123,2.0,2.0,94,0.00,,,0.00,Wunderground v.1.15,2013-12-02 10:20:00,
2013-12-02 05:30:00,40.4,38.8,29.87,ESE,110,1.0,1.0,94,0.00,,,0.00,Wunderground v.1.15,2013-12-02 10:30:00,
2013-12-02 05:40:00,40.3,38.7,29.87,ESE,113,1.0,1.0,94,0.00,,,0.00,Wunderground v.1.15,2013-12-02 10:40:00,
2013-12-02 05:50:00,40.2,38.6,29.87,East,89,1.0,2.0,94,0.00,,,0.00,Wunderground v.1.15,2013-12-02 10:50:00,
2013-12-02 06:00:00,40.1,38.2,29.87,ESE,110,1.0,2.0,93,0.00,,,0.00,Wunderground v.1.15,2013-12-02 11:00:00,
2013-12-02 06:10:00,39.9,38.0,29.87,ESE,112,1.0,1.0,93,0.00,,,0.00,Wunderground v.1.15,2013-12-02 11:10:00,
2013-12-02 06:20:00,39.7,37.8,29.87,East,85,1.0,1.0,93,0.00,,,0.00,Wunderground v.1.15,2013-12-02 11:20:00,
2013-12-02 06:30:00,39.4,37.5,29.87,ENE,64,1.0,1.0,93,0.00,,,0.00,Wunderground v.1.15,2013-12-02 11:30:00,
2013-12-02 06:40:00,39.1,37.2,29.87,ENE,60,1.0,1.0,93,0.00,,,0.00,Wunderground v.1.15,2013-12-02 11:40:00,
2013-12-02 06:50:00,38.9,37.0,29.87,ESE,119,1.0,1.0,93,0.00,,,0.00,Wunderground v.1.15,2013-12-02 11:50:00,
2013-12-02 07:00:00,38.7,36.9,29.86,ESE,102,1.0,1.0,93,0.00,,,0.00,Wunderground v.1.15,2013-12-02 12:00:00,
2013-12-02 07:10:00,38.5,36.9,29.86,ESE,106,1.0,1.0,94,0.00,,,0.00,Wunderground v.1.15,2013-12-02 12:10:00,
2013-12-02 07:20:00,38.4,36.8,29.86,ESE,116,1.0,1.0,94,0.00,,,0.00,Wunderground v.1.15,2013-12-02 12:20:00,
2013-12-02 07:30:00,38.3,36.7,29.86,ESE,118,1.0,2.0,94,0.00,,,0.00,Wunderground v.1.15,2013-12-02 12:30:00,
2013-12-02 07:40:00,38.3,36.7,29.86,East,83,1.0,1.0,94,0.00,,,0.00,Wunderground v.1.15,2013-12-02 12:40:00,
2013-12-02 07:50:00,38.3,36.7,29.86,NE,48,2.0,2.0,94,0.00,,,0.00,Wunderground v.1.15,2013-12-02 12:50:00,
2013-12-02 08:00:00,38.3,36.7,29.87,ENE,69,1.0,1.0,94,0.00,,,0.00,Wunderground v.1.15,2013-12-02 13:00:00,
2013-12-02 08:10:00,38.2,36.6,29.87,East,97,2.0,2.0,94,0.00,,,0.00,Wunderground v.1.15,2013-12-02 13:10:00,
2013-12-02 08:20:00,38.1,36.5,29.87,East,100,1.0,1.0,94,0.00,,,0.00,Wunderground v.1.15,2013-12-02 13:20:00,
2013-12-02 08:30:00,37.9,36.3,29.87,ESE,106,1.0,2.0,94,0.00,,,0.00,Wunderground v.1.15,2013-12-02 13:30:00,
2013-12-02 08:40:00,38.0,36.4,29.87,East,87,1.0,1.0,94,0.00,,,0.00,Wunderground v.1.15,2013-12-02 13:40:00,
2013-12-02 08:50:00,38.0,36.4,29.87,ENE,70,1.0,1.0,94,0.00,,,0.00,Wunderground v.1.15,2013-12-02 13:50:00,
2013-12-02 09:00:00,38.2,36.9,29.87,NE,54,1.0,2.0,95,0.00,,,0.00,Wunderground v.1.15,2013-12-02 14:00:00,
2013-12-02 09:10:00,38.3,37.0,29.87,NE,53,1.0,1.0,95,0.00,,,0.00,Wunderground v.1.15,2013-12-02 14:10:00,
2013-12-02 09:20:00,38.5,37.2,29.87,North,4,1.0,2.0,95,0.00,,,0.00,Wunderground v.1.15,2013-12-02 14:20:00,
2013-12-02 09:30:00,38.7,37.4,29.87,ENE,58,1.0,1.0,95,0.00,,,0.00,Wunderground v.1.15,2013-12-02 14:30:00,
2013-12-02 09:40:00,38.9,37.6,29.87,NE,48,2.0,2.0,95,0.00,,,0.00,Wunderground v.1.15,2013-12-02 14:40:00,
2013-12-02 09:50:00,39.1,37.8,29.87,NNE,14,2.0,2.0,95,0.00,,,0.00,Wunderground v.1.15,2013-12-02 14:50:00,
2013-12-02 10:00:00,39.2,37.9,29.87,NNE,20,2.0,2.0,95,0.00,,,0.00,Wunderground v.1.15,2013-12-02 15:00:00,
2013-12-02 10:10:00,39.3,38.0,29.87,NNE,19,3.0,3.0,95,0.00,,,0.00,Wunderground v.1.15,2013-12-02 15:10:00,
2013-12-02 10:20:00,39.4,38.1,29.87,NNW,340,3.0,5.0,95,0.00,,,0.00,Wunderground v.1.15,2013-12-02 15:20:00,
2013-12-02 10:30:00,39.7,38.4,29.87,ESE,104,2.0,2.0,95,0.00,,,0.00,Wunderground v.1.15,2013-12-02 15:30:00,
2013-12-02 10:40:00,40.1,38.8,29.87,East,83,2.0,2.0,95,0.00,,,0.00,Wunderground v.1.15,2013-12-02 15:40:00,
2013-12-02 10:50:00,40.4,39.1,29.86,ESE,120,1.0,1.0,95,0.00,,,0.00,Wunderground v.1.15,2013-12-02 15:50:00,
2013-12-02 11:00:00,40.5,39.2,29.86,NE,52,2.0,2.0,95,0.00,,,0.00,Wunderground v.1.15,2013-12-02 16:00:00,
2013-12-02 11:10:00,40.6,39.0,29.86,ENE,66,1.0,1.0,94,0.00,,,0.00,Wunderground v.1.15,2013-12-02 16:10:00,
2013-12-02 11:20:00,40.9,39.3,29.85,ENE,64,1.0,2.0,94,0.00,,,0.00,Wunderground v.1.15,2013-12-02 16:20:00,
2013-12-02 11:30:00,40.9,39.3,29.85,North,9,1.0,1.0,94,0.00,,,0.00,Wunderground v.1.15,2013-12-02 16:30:00,
2013-12-02 11:40:00,41.3,39.7,29.85,ENE,58,1.0,2.0,94,0.00,,,0.00,Wunderground v.1.15,2013-12-02 16:40:00,
2013-12-02 11:50:00,41.5,39.9,29.84,ENE,72,2.0,3.0,94,0.00,,,0.00,Wunderground v.1.15,2013-12-02 16:50:00,
2013-12-02 12:00:00,41.6,39.7,29.84,NNE,12,2.0,2.0,93,0.00,,,0.00,Wunderground v.1.15,2013-12-02 17:00:00,
2013-12-02 12:10:00,41.5,39.3,29.84,NW,320,2.0,6.0,92,0.00,,,0.00,Wunderground v.1.15,2013-12-02 17:10:00,
2013-12-02 12:20:00,41.4,39.3,29.84,NNE,26,5.0,5.0,92,0.00,,,0.00,Wunderground v.1.15,2013-12-02 17:20:00,
2013-12-02 12:30:00,41.5,39.3,29.83,NNE,12,4.0,4.0,92,0.00,,,0.00,Wunderground v.1.15,2013-12-02 17:30:00,
2013-12-02 12:40:00,41.3,39.2,29.83,NNE,18,5.0,6.0,92,0.00,,,0.00,Wunderground v.1.15,2013-12-02 17:40:00,
2013-12-02 12:50:00,41.0,38.9,29.83,North,359,5.0,5.0,92,0.00,,,0.00,Wunderground v.1.15,2013-12-02 17:50:00,
2013-12-02 13:00:00,40.8,38.7,29.82,NW,325,5.0,7.0,92,0.00,,,0.00,Wunderground v.1.15,2013-12-02 18:00:00,
2013-12-02 13:10:00,40.7,38.8,29.82,NNE,23,6.0,6.0,93,0.00,,,0.00,Wunderground v.1.15,2013-12-02 18:10:00,
2013-12-02 13:20:00,40.6,38.7,29.82,NNE,28,6.0,6.0,93,0.00,,,0.00,Wunderground v.1.15,2013-12-02 18:20:00,
2013-12-02 13:30:00,40.5,38.6,29.81,NNW,343,5.0,6.0,93,0.00,,,0.00,Wunderground v.1.15,2013-12-02 18:30:00,
2013-12-02 13:40:00,40.5,38.6,29.81,North,4,4.0,4.0,93,0.00,,,0.00,Wunderground v.1.15,2013-12-02 18:40:00,
2013-12-02 13:50:00,40.7,38.6,29.81,North,350,2.0,2.0,92,0.00,,,0.00,Wunderground v.1.15,2013-12-02 18:50:00,
2013-12-02 14:00:00,40.8,38.7,29.81,North,349,1.0,3.0,92,0.00,,,0.00,Wunderground v.1.15,2013-12-02 19:00:00,
2013-12-02 14:10:00,40.7,38.6,29.81,NNE,18,3.0,3.0,92,0.00,,,0.00,Wunderground v.1.15,2013-12-02 19:10:00,
2013-12-02 14:20:00,40.7,38.6,29.81,NNW,345,3.0,3.0,92,0.00,,,0.00,Wunderground v.1.15,2013-12-02 19:20:00,
2013-12-02 14:30:00,40.7,38.6,29.80,NE,37,3.0,3.0,92,0.00,,,0.00,Wunderground v.1.15,2013-12-02 19:30:00,
2013-12-02 14:40:00,40.8,38.7,29.80,SSE,168,1.0,1.0,92,0.00,,,0.00,Wunderground v.1.15,2013-12-02 19:40:00,
2013-12-02 14:50:00,41.0,38.9,29.80,SE,133,1.0,2.0,92,0.00,,,0.00,Wunderground v.1.15,2013-12-02 19:50:00,
2013-12-02 15:00:00,41.2,39.1,29.81,ESE,108,1.0,1.0,92,0.00,,,0.00,Wunderground v.1.15,2013-12-02 20:00:00,
2013-12-02 15:10:00,41.3,38.9,29.81,SE,133,1.0,1.0,91,0.00,,,0.00,Wunderground v.1.15,2013-12-02 20:10:00,
2013-12-02 15:20:00,41.2,38.8,29.82,SE,136,0.0,1.0,91,0.00,,,0.00,Wunderground v.1.15,2013-12-02 20:20:00,
2013-12-02 15:30:00,41.1,38.7,29.82,ESE,102,1.0,1.0,91,0.00,,,0.00,Wunderground v.1.15,2013-12-02 20:30:00,
2013-12-02 15:40:00,41.0,38.6,29.82,East,85,1.0,1.0,91,0.00,,,0.00,Wunderground v.1.15,2013-12-02 20:40:00,
2013-12-02 15:50:00,41.0,38.6,29.83,East,85,1.0,1.0,91,0.00,,,0.00,Wunderground v.1.15,2013-12-02 20:50:00,
2013-12-02 16:00:00,40.9,38.5,29.83,East,85,1.0,2.0,91,0.00,,,0.00,Wunderground v.1.15,2013-12-02 21:00:00,
2013-12-02 16:10:00,40.7,38.3,29.83,ENE,62,1.0,1.0,91,0.00,,,0.00,Wunderground v.1.15,2013-12-02 21:10:00,
2013-12-02 16:20:00,40.7,38.6,29.81,North,7,2.0,3.0,92,0.00,,,0.00,Wunderground v.1.15,2013-12-02 21:20:00,
2013-12-02 16:30:00,40.5,38.4,29.81,North,9,2.0,2.0,92,0.00,,,0.00,Wunderground v.1.15,2013-12-02 21:30:00,
2013-12-02 16:40:00,40.5,38.4,29.81,NNE,23,2.0,3.0,92,0.00,,,0.00,Wunderground v.1.15,2013-12-02 21:40:00,
2013-12-02 16:50:00,40.5,38.4,29.81,NNE,23,2.0,2.0,92,0.00,,,0.00,Wunderground v.1.15,2013-12-02 21:50:00,
2013-12-02 17:00:00,40.7,38.8,29.81,NNE,12,3.0,3.0,93,0.00,,,0.00,Wunderground v.1.15,2013-12-02 22:00:00,
2013-12-02 17:10:00,40.7,38.6,29.81,NE,35,2.0,2.0,92,0.00,,,0.00,Wunderground v.1.15,2013-12-02 22:10:00,
2013-12-02 17:20:00,40.7,38.6,29.81,NE,50,2.0,2.0,92,0.00,,,0.00,Wunderground v.1.15,2013-12-02 22:20:00,
2013-12-02 17:30:00,40.4,38.3,29.81,North,8,2.0,2.0,92,0.00,,,0.00,Wunderground v.1.15,2013-12-02 22:30:00,
2013-12-02 17:40:00,40.3,37.9,29.81,North,351,2.0,2.0,91,0.00,,,0.00,Wunderground v.1.15,2013-12-02 22:40:00,
2013-12-02 17:50:00,40.4,37.7,29.81,NE,39,1.0,1.0,90,0.00,,,0.00,Wunderground v.1.15,2013-12-02 22:50:00,
2013-12-02 18:00:00,40.4,37.7,29.81,NE,45,1.0,1.0,90,0.00,,,0.00,Wunderground v.1.15,2013-12-02 23:00:00,
2013-12-02 18:10:00,40.5,37.8,29.81,East,93,1.0,1.0,90,0.00,,,0.00,Wunderground v.1.15,2013-12-02 23:10:00,
2013-12-02 18:20:00,40.5,37.5,29.81,East,94,1.0,1.0,89,0.00,,,0.00,Wunderground v.1.15,2013-12-02 23:20:00,
2013-12-02 18:30:00,40.3,37.3,29.81,SSE,152,1.0,2.0,89,0.00,,,0.00,Wunderground v.1.15,2013-12-02 23:30:00,
2013-12-02 18:40:00,39.6,36.3,29.81,SE,146,1.0,2.0,88,0.00,,,0.00,Wunderground v.1.15,2013-12-02 23:40:00,
2013-12-02 18:50:00,39.0,35.7,29.81,SSE,152,1.0,1.0,88,0.00,,,0.00,Wunderground v.1.15,2013-12-02 23:50:00,
2013-12-02 19:00:00,38.5,35.5,29.81,SSE,152,2.0,2.0,89,0.00,,,0.00,Wunderground v.1.15,2013-12-03 00:00:00,
2013-12-02 19:10:00,38.1,35.1,29.81,SSE,151,1.0,2.0,89,0.00,,,0.00,Wunderground v.1.15,2013-12-03 00:10:00,
2013-12-02 19:20:00,37.9,35.2,29.81,SE,127,2.0,2.0,90,0.00,,,0.00,Wunderground v.1.15,2013-12-03 00:20:00,
2013-12-02 19:30:00,38.0,35.3,29.81,SSE,163,2.0,2.0,90,0.00,,,0.00,Wunderground v.1.15,2013-12-03 00:30:00,
2013-12-02 19:40:00,37.8,35.4,29.81,South,170,2.0,2.0,91,0.00,,,0.00,Wunderground v.1.15,2013-12-03 00:40:00,
2013-12-02 19:50:00,37.5,35.1,29.81,SE,138,2.0,3.0,91,0.00,,,0.00,Wunderground v.1.15,2013-12-03 00:50:00,
2013-12-02 20:00:00,37.5,35.4,29.82,SE,145,2.0,3.0,92,0.00,,,0.00,Wunderground v.1.15,2013-12-03 01:00:00,
2013-12-02 20:10:00,37.6,35.5,29.82,SE,145,2.0,2.0,92,0.00,,,0.00,Wunderground v.1.15,2013-12-03 01:10:00,
2013-12-02 20:20:00,37.4,35.3,29.82,SE,137,1.0,2.0,92,0.00,,,0.00,Wunderground v.1.15,2013-12-03 01:20:00,
2013-12-02 20:30:00,37.2,35.1,29.82,SE,141,2.0,2.0,92,0.00,,,0.00,Wunderground v.1.15,2013-12-03 01:30:00,
2013-12-02 20:40:00,37.2,35.4,29.82,SE,136,1.0,1.0,93,0.00,,,0.00,Wunderground v.1.15,2013-12-03 01:40:00,
2013-12-02 20:50:00,37.5,35.7,29.82,SE,145,1.0,1.0,93,0.00,,,0.00,Wunderground v.1.15,2013-12-03 01:50:00,
2013-12-02 21:00:00,38.0,36.4,29.82,SE,140,2.0,2.0,94,0.00,,,0.00,Wunderground v.1.15,2013-12-03 02:00:00,
2013-12-02 21:10:00,38.3,36.5,29.82,SE,128,2.0,2.0,93,0.00,,,0.00,Wunderground v.1.15,2013-12-03 02:10:00,
2013-12-02 21:20:00,38.4,36.6,29.82,ESE,104,1.0,3.0,93,0.00,,,0.00,Wunderground v.1.15,2013-12-03 02:20:00,
2013-12-02 21:30:00,38.7,37.1,29.82,ESE,118,2.0,2.0,94,0.00,,,0.00,Wunderground v.1.15,2013-12-03 02:30:00,
2013-12-02 21:40:00,39.1,37.5,29.82,SE,130,2.0,2.0,94,0.00,,,0.00,Wunderground v.1.15,2013-12-03 02:40:00,
2013-12-02 21:50:00,39.3,37.7,29.82,SE,140,1.0,1.0,94,0.00,,,0.00,Wunderground v.1.15,2013-12-03 02:50:00,
2013-12-02 22:00:00,39.4,37.8,29.81,East,96,0.0,0.0,94,0.00,,,0.00,Wunderground v.1.15,2013-12-03 03:00:00,
2013-12-02 22:10:00,39.4,37.5,29.81,East,88,0.0,0.0,93,0.00,,,0.00,Wunderground v.1.15,2013-12-03 03:10:00,
2013-12-02 22:20:00,39.3,37.4,29.81,SE,133,0.0,1.0,93,0.00,,,0.00,Wunderground v.1.15,2013-12-03 03:20:00,
2013-12-02 22:30:00,39.3,37.7,29.81,ESE,104,1.0,1.0,94,0.00,,,0.00,Wunderground v.1.15,2013-12-03 03:30:00,
2013-12-02 22:40:00,39.3,37.7,29.81,ESE,104,0.0,0.0,94,0.00,,,0.00,Wunderground v.1.15,2013-12-03 03:40:00,
2013-12-02 22:50:00,39.4,37.8,29.81,ESE,104,0.0,0.0,94,0.00,,,0.00,Wunderground v.1.15,2013-12-03 03:50:00,
2013-12-02 23:00:00,39.5,37.9,29.80,ESE,104,0.0,0.0,94,0.00,,,0.00,Wunderground v.1.15,2013-12-03 04:00:00,
2013-12-02 23:10:00,39.4,37.8,29.80,ESE,104,0.0,0.0,94,0.00,,,0.00,Wunderground v.1.15,2013-12-03 04:10:00,
2013-12-02 23:20:00,39.6,38.0,29.79,NNE,17,1.0,3.0,94,0.00,,,0.00,Wunderground v.1.15,2013-12-03 04:20:00,
2013-12-02 23:30:00,40.0,38.4,29.78,North,11,3.0,3.0,94,0.00,,,0.00,Wunderground v.1.15,2013-12-03 04:30:00,
2013-12-02 23:40:00,40.2,38.6,29.78,NNW,335,2.0,2.0,94,0.00,,,0.00,Wunderground v.1.15,2013-12-03 04:40:00,
2013-12-02 23:50:00,40.2,38.6,29.78,NNE,25,1.0,1.0,94,0.00,,,0.00,Wunderground v.1.15,2013-12-03 04:50:00,